Terminal Aerodrome Forecast
Issued by NWS

Home | Current Version | Previous Version | Text Only | Print | Product List | Glossary On
Versions: 1 2 3 4 5 6 7 8 9 10 11 12 13 14 15 16 17 18 19 20 21 22 23 24 25 26 27 28 29 30 31 32
000
FTUS45 KSLC 280521
TAFBCE
TAF
KBCE 280521Z 2806/2906 25007KT P6SM SCT060 BKN150
     FM281700 30011KT P6SM FEW040 BKN080=

USA.gov is the U.S. government's official web portal to all federal, state and local government web resources and services.